Regional Weather Roundup
Issued by NWS Pendleton, OR

Home | Current Version | Previous Version | Text Only | Print | Product List | Glossary On
Versions: 1 2 3 4 5 6 7 8 9 10 11 12 13 14 15 16 17 18 19 20 21 22 23 24 25 26 27 28 29 30 31 32 33 34 35 36 37 38 39 40 41 42 43 44 45 46 47 48 49 50
273
ASUS46 KPDT 252310
RWRPDT
PENDLETON REGIONAL WEATHER ROUNDUP
NATIONAL WEATHER SERVICE PENDLETON OREGON
400 PM PDT THU MAY 25 2017

NOTE: FAIR INDICATES FEW OR NO CLOUDS BELOW 12,000 FEET WITH NO
SIGNIFICANT WEATHER AND/OR OBSTRUCTIONS TO VISIBILITY.

# INDICATES UNOFFICIAL STATION AND DATA

WAZ520-260010-
EAST SLOPES OF WASHINGTON CASCADES

CITY            SKY/WX      TMP DP  RH  WIND    PRES   REMARKS
#BULLFROG       N/A         71  38  30  SE2     N/A
#CLE ELUM HS    N/A         68  34  28  CALM    29.75F
#CLE ELUM LAKE  N/A         64  41  43  CALM    29.87F
#EASTON DOT     N/A         66  41  40  N1      N/A
#ELK HTS DOT    N/A         67  67  100 CALM    N/A
#GLENWOOD       N/A         68  48  49  CALM    29.77F
#NELSON 3SW     N/A         66  38  36  CALM    29.98F
#NILE           N/A         68  43  40  SW2     29.04F
#TEANAWAY 4NE   N/A         68  46  45  W2      N/A
#TROUT LAKE 1NE N/A         66  44  45  CALM    29.77F
#TROUT LAKE 1E  N/A         68  43  40  CALM    29.81F
$$

WAZ521-260010-
SIMCOE HIGHLANDS

CITY            SKY/WX      TMP DP  RH  WIND    PRES   REMARKS
#BICKLETON HS   N/A         58  44  60  E1      29.80S
#CENTERVILLE 1SWN/A         66  42  42  E2      29.74S
#GOLDENDALE 1NE N/A         67  29  24  E7      N/A
#GOLDENDALE 4W  N/A         69  15  12  CALM    29.84F
#GOODNOE HILLS  N/A         68  45  44  SE8     N/A
#LYLE 6NE       N/A         68  47  47  SW1     29.75S
#PITT 4SE       N/A         65  42  43  NE5     29.82F
$$

WAZ026-260010-
KITTITAS VALLEY

CITY            SKY/WX      TMP DP  RH  WIND    PRES   REMARKS
ELLENSBURG AP   PTCLDY      72  42  34  MISG    29.80S
YTC-OPS AREA    SUNNY       60  38  44  E10     29.85S
#ELLENSBURG CWU N/A         68  43  40  E7      29.72S
#ELLENSBURG 3NE N/A         67  46  47  SW5     27.88F
#KITTITAS 4N    N/A         68  46  45  E1      29.82F
#KITTITAS 3S    N/A         67  47  49  CALM    29.76F
#MANASTASH RDG  N/A         66  65  97  E1      N/A
#ROCKY CYN DOT  N/A         70  41  35  E5      N/A
#RYEGRASS DOT   N/A         63  42  46  E12     N/A
#THORP 6N       N/A         66  44  45  S5      29.80F
$$

WAZ027-260010-
YAKIMA VALLEY

CITY            SKY/WX      TMP DP  RH  WIND    PRES   REMARKS
SUNNYSIDE AP    PTCLDY      68  43  40  E6      29.80F
YAKIMA AIRPORT  PTCLDY      74  41  30  SE12    29.79F
YAKIMA-VAGABOND PTCLDY      72  39  30  N7      29.77F
#DONALD 2NE     N/A         71  12  10  SW6     28.64F
#GRANDVIEW      N/A         67  39  36  SE1     29.80F
#MABTON         N/A         68  46  45  E7      29.79F
#MOXEE 2E       N/A         68  N/A N/A N5      29.78F
#NACHES 2SW     N/A         69  44  40  SE2     29.82S
#OUTLOOK DOT    N/A         70  38  31  CALM    29.77S
#PARKER DOT     N/A         73  39  29  N8      29.79S
#TERRACE HTS    N/A         73  50  44  CALM    29.74F
#TOPPENISH      N/A         69  43  39  CALM    29.69F
#I82 S UMTANUM RN/A         69  42  37  N6      N/A
#UNION GAP DOT  N/A         72  38  29  S3      29.82S
#WEST VALLEY    N/A         68  42  39  SE5     29.76F
#W YAKIMA       N/A         70  43  38  E8      29.76F
#WHITE SWAN 5E  N/A         70  46  42  E1      29.78F
#WILEY CITY 3W  N/A         72  35  26  CALM    29.77F
#ZILLAH DOT     N/A         71  39  31  SE2     N/A
$$

WAZ028-260010-
LOWER COLUMBIA BASIN...WASHINGTON

CITY            SKY/WX      TMP DP  RH  WIND    PRES   REMARKS
PASCO           CLOUDY      68  42  39  E3      29.82F
PROSSER AWOS    N/A         68  41  37  CALM    29.83F
RICHLAND AWOS   MOCLDY      69  43  39  NE7     29.82F
#BENTON CITY    N/A         64  46  52  E2      29.71F
#CONNELL 5N     N/A         64  48  56  E1      29.82F
#CONNELL 5NW    N/A         64  46  52  SE3     29.76F
#ELTOPIA 6NW    N/A         63  47  56  CALM    28.80F
#KAHLOTUS       N/A         61  43  51  S10     29.81F
#KENNEWICK 3S   N/A         66  45  47  SE1     29.80F
#PATERSON       N/A         68  42  39  S6      29.78F
#PROSSER DOT    N/A         69  39  33  NE7     29.81F
#SAGEMOOR 2W    N/A         64  46  52  E5      29.67F
#TOUCHET 2S     N/A         66  52  61  SE2     29.78F
#WEST PASCO     N/A         70  48  46  SE1     29.80F
$$

WAZ029-260010-
FOOTHILLS OF THE BLUES...WASHINGTON

CITY            SKY/WX      TMP DP  RH  WIND    PRES   REMARKS
WALLA WALLA AP  CLOUDY      64  42  45  VRB3    29.82F
#CLYDE 6NW      N/A         62  43  50  E7      29.80F
#DAYTON SCHOOL  N/A         60  37  42  N6      29.85F
#DELANEY DOT    N/A         65  41  41  N1      29.85F
#LOWDEN 2SE     N/A         66  44  45  E1      29.78F
#PLEASANT VIEW 1N/A         60  42  51  NE3     29.84F
#PRESCOTT       N/A         63  45  52  CALM    29.81F
#WHITMAN COLLEGEN/A         62  43  50  CALM    29.85F
#WAITSBURG 6SSE N/A         62  46  56  NW2     29.81F
#WALLA WALLA 5E N/A         62  46  56  N3      N/A
#WHITMAN MISSIONN/A         66  46  48  CALM    29.82F
$$

WAZ030-260010-
BLUE MOUNTAINS...WASHINGTON

CITY            SKY/WX      TMP DP  RH  WIND    PRES   REMARKS
#DIXIE 5SE      N/A         54  42  64  N2      29.77F
$$

ORZ009-041-WAZ024-260010-
COLUMBIA RIVER GORGE

CITY            SKY/WX      TMP DP  RH  WIND    PRES   REMARKS
HOOD RIVER AP   PTCLDY      73  43  34  N3      29.77F
THE DALLES AP   PTCLDY      78  39  25  VRB7    29.75F
#ARLINGTON AIRPON/A         66  44  45  E7      29.80F
#CELILO DOT     N/A         78  45  31  NE2     N/A
#LYLE           N/A         75  44  33  S5      29.76F
#MARYHILL       N/A         73  39  29  N8      N/A
#MURDOCK        N/A         76  44  32  W2      29.71F
#RUFUS DOT      N/A         72  41  33  E8      N/A
#SMITHVILLE     N/A         74  42  32  N5      29.67F

$$

ORZ510-260010-
NORTH CENTRAL OREGON

CITY            SKY/WX      TMP DP  RH  WIND    PRES   REMARKS
#ANTELOPE       N/A         61  40  46  NE14    29.66S
#CHENOWITH 1W   N/A         51  35  54  NW14    N/A
#COW CYN RST AREN/A         62  35  36  N8      N/A
#DUFUR          N/A         70  41  35  NE7     29.74F
#DUFUR 9E       N/A         63  40  43  E3      29.84F
#GRASS VALLEY 1SN/A         65  40  40  NE6     29.84F
#KENT DOT       N/A         63  33  32  NE8     N/A
#MAUPIN SCHOOL  N/A         70  42  36  E7      29.81F
#MORO SCHOOL    N/A         67  46  47  NE3     29.89F
#SHANIKO 5WSW   N/A         58  30  34  N12     N/A
#SHANIKO 4NW    N/A         58  36  44  N13     29.83S
#TYGH VALLEY 2NEN/A         70  40  34  N2      29.75F
#WAPANITIA AIRPON/A         67  39  36  E6      29.78F
#WASCO DOT      N/A         71  39  31  E12     N/A
#WASCO 5NE      N/A         68  44  42  CALM    29.78F
$$

ORZ511-260010-
CENTRAL OREGON

CITY            SKY/WX      TMP DP  RH  WIND    PRES   REMARKS
BEND AIRPORT    FAIR        63  28  26  N9      29.75S
MADRAS AIRPORT  MOCLDY      64  32  30  N13     29.81F
PRINEVILLE AP   MOCLDY      64  34  33  MISG    29.79F
REDMOND AIRPORT FAIR        67  30  25  N17     29.78F
#ASHWOOD SCHOOL N/A         62  36  38  N2      29.78S
#BEND 1SW       N/A         62  34  35  E3      N/A
#BEND-AWBREY    N/A         67  36  32  N6      29.75S
#BEND-KIM LN    N/A         65  36  34  N8      29.71S
#CULVER         N/A         66  36  33  NW3     29.68F
#CULVER 8W      N/A         68  32  26  SE1     29.83R
#MADRAS 4S      N/A         65  14  14  N10     N/A
#POWELL BUTTE   N/A         62  34  35  N5      29.78S
#PRINEVILLE     N/A         64  36  35  NW5     29.83F
#PRINEVILLE 3N  N/A         63  40  43  N13     29.74F

$$


ORZ509-260010-
EAST SLOPES OF OREGON CASCADES

CITY            SKY/WX      TMP DP  RH  WIND    PRES   REMARKS
SISTERS AWOS    N/A         63  34  34  E8      29.80S
#CAMP SHERMAN   N/A         65  31  28  CALM    29.83R
#LA PINE 4SW    N/A         66  31  27  N7      29.83S
#LA PINE 4NW    N/A         61  35  38  N5      29.78S
#LAVA BUTTE DOT N/A         62  30  30  N2      N/A
#SISTERS 3N     N/A         63  34  34  NE3     29.82S
#SUNRIVER       N/A         63  33  32  N3      29.74F
#TUMALO 3W      N/A         62  35  36  N7      29.65S
#WANOGA BUTTE D N/A         51  29  42  NE7     N/A

$$

ORZ044-260010-
LOWER COLUMBIA BASIN...OREGON

CITY            SKY/WX      TMP DP  RH  WIND    PRES   REMARKS
HERMISTON       MOCLDY      67  40  37  E6      29.80F
#BOARDMAN SCHOOLN/A         68  43  40  N7      29.79F
#BOARDMAN 8SW   N/A         69  44  40  N6      29.78F
#ECHO 8SW       N/A         67  40  37  E2      29.82S
#I-84 EX 198 DOTN/A         64  44  48  NE3     N/A
#IONE SCHOOL    N/A         66  40  38  NE1     29.79F
#UMATILLA       N/A         70  41  35  CALM    29.72F
$$

ORZ507-260010-
NORTHERN FOOTHILLS OF THE BLUES

CITY            SKY/WX      TMP DP  RH  WIND    PRES   REMARKS
PENDLETON AIRPT CLOUDY      63  43  48  E5      29.81F
#ADAMS 3WNW     N/A         62  46  56  CALM    29.81F
#ATHENA         N/A         59  42  53  NE2     29.83F
#CAYUSE         N/A         61  44  53  E1      29.79F
#HELIX 3N       N/A         60  41  49  NE12    29.80F
#HOLDMAN 5SE    N/A         62  41  46  CALM    29.81F
#HOLDMAN 6E     N/A         62  40  44  N5      29.61F
#M-F FERNDALE   N/A         65  45  48  CALM    29.79F
#M-F GROVE ELEM N/A         62  40  44  NE1     29.80F
#M-FREEWATER 5SEN/A         62  44  52  CALM    29.82F
#PENDLETON DNTN N/A         63  40  43  N2      29.80F
#PDT AQUATIC CTRN/A         64  42  45  W2      29.85F
#PDT SUNRIDGE   N/A         62  42  48  CALM    29.83F
#PENDLETON 7NW  N/A         62  44  52  CALM    32.49S
#PILOT ROCK 1S  N/A         59  38  45  CALM    29.84F
#PILOT ROCK     N/A         64  40  41  CALM    29.84F
#TUTUILLA       N/A         65  47  52  CALM    29.82F
#UMAPINE 2E     N/A         65  44  46  NE3     29.79F
#WESTON SCHOOL  N/A         58  39  49  E1      29.78F

$$

ORZ508-260010-
SOUTHERN FOOTHILLS OF THE BLUES

CITY            SKY/WX      TMP DP  RH  WIND    PRES   REMARKS
LEXINGTON       CLOUDY      64  37  37  N10     29.83F
#AJAX           N/A         65  35  33  S7      29.97F
#CONDON 5W      N/A         56  37  49  NE7     29.82F
#FOSSIL SCHOOL  N/A         60  40  47  NE7     29.78S
#HEPPNER EOC    N/A         61  39  44  N3      29.73F
#HEPPNER 4NE    N/A         58  41  53  E5      29.79F
#LEXINGTON 2SE  N/A         66  40  38  E3      29.78F
#MIKKALO        N/A         67  38  34  E7      29.92F
#OLEX 4N        N/A         66  43  43  NE7     29.80F
#RUGGS 5NE      N/A         62  38  41  E6      30.01S
#RUGGS 2SW      N/A         58  39  49  N5      29.80F

$$

ORZ502-503-260010-
BLUE MOUNTAINS

CITY            SKY/WX      TMP DP  RH  WIND    PRES   REMARKS
MEACHAM         CLOUDY      52  35  52  VRB3    29.84F
#BATTLE MTN DOT N/A         45  38  76  CALM    N/A
#GRANITE        N/A         48  37  65  SW1     29.47F
#GREENHORN 9SW  N/A         53  41  64  W1      29.84F
#HARDMAN 10S    N/A         53  37  54  N5      29.91F
#LADD CYN SMT   N/A         50  37  61  NW8     N/A
#LADD CREEK ODOTN/A         52  39  61  NE14    N/A
#LONG CREEK HS  N/A         50  42  74  CALM    N/A
#N POWDER DOT   N/A         56  40  55  N18     N/A
#PIKES PEAK     N/A         50  39  66  CALM    27.99S
#SUMMERVILLE 5NWN/A         53  42  66  E1      29.87S
#TOLLGATE       N/A         42  37  82  E2      29.74S
#TROY SCHOOL    N/A         59  45  60  CALM    29.66F
#UKIAH          N/A         50  41  71  NW5     29.72F
#WESTON 4E      N/A         53  41  64  NW1     29.78F
$$

ORZ505-260010-
JOHN DAY BASIN

CITY            SKY/WX      TMP DP  RH  WIND    PRES   REMARKS
JOHN DAY        LGT RAIN    51  42  71  CALM    29.83R
#ANTELOPE 9ESE  N/A         67  38  34  NE10    N/A
#DAYVILLE SCHOOLN/A         59  35  40  N7      29.79S
#MITCHELL       N/A         58  40  51  NE5     29.96F
#MITCHELL 8NW   N/A         56  35  45  NE3     29.79S
#MONUMENT HS    N/A         61  41  48  W5      29.78F
#MT. VERNON 5SE N/A         47  40  76  CALM    29.78S
#SPRAY SCHOOL   N/A         63  N/A N/A CALM    N/A
$$

ORZ506-260010-
OCHOCO AND JOHN DAY HIGHLANDS

CITY            SKY/WX      TMP DP  RH  WIND    PRES   REMARKS
#HORSE RIDGE DO N/A         61  27  27  NW16    N/A
#IZEE 6NW       N/A         59  36  42  W2      N/A
#PAULINA ODOT   N/A         59  32  36  N6      N/A
#PINE MTN OBS   N/A         48  31  51  N5      N/A
#PRAIRIE CITY   N/A         55  40  57  CALM    29.96R
#SENECA         N/A         46  N/A N/A N5      N/A
#SENECA 9NW     N/A         44  39  82  SW2     29.77R
$$

ORZ049-260010-
GRANDE RONDE VALLEY

CITY            SKY/WX      TMP DP  RH  WIND    PRES   REMARKS
LA GRANDE       MOCLDY      54  39  57  N10     29.83S
#COVE           N/A         55  43  64  NE5     29.86S
#COVE SCHOOL    N/A         55  41  59  CALM    29.85S
#COVE 6NW       N/A         53  42  66  N6      29.80S
#ELGIN 3N       N/A         56  39  53  CALM    29.82F
#ELGIN 1E       N/A         55  43  64  CALM    N/A
#IMBLER SCHOOL  N/A         53  41  64  CALM    29.81S
#ISLAND CITY 4N N/A         74  52  46  N2      29.80F
#LA GRANDE-LEFFEN/A         53  44  71  N10     29.84S
#UNION 1S       N/A         55  42  61  N8      29.78S
$$

ORZ050-260010-
WALLOWA COUNTY

CITY            SKY/WX      TMP DP  RH  WIND    PRES   REMARKS
JOSEPH AIRPORT  LGT DRIZZLE 46  41  83  W3      29.86S
#ENTERPRISE HS  N/A         47  42  83  CALM    29.70S
#IMNAHA SCHOOL  N/A         59  39  47  N5      29.82F
#IMNAHA 10S     N/A         54  40  59  NE2     29.83
#JOSEPH         N/A         46  40  79  SW1     29.85S
#JOSEPH 3N      N/A         46  38  73  NW6     29.89F
#JOSEPH 3W      N/A         43  43  100 CALM    29.72S
#LOSTINE        N/A         48  44  86  CALM    29.64S
#LOSTINE 3SE    N/A         48  41  77  CALM    29.88F
#MT HOWARD 8000 N/A         32  30  92  VRB1    29.84F
#PROMISE 1S     N/A         48  39  71  N3      29.93F
#WALLOWA LAKE   N/A         44  40  86  CALM    29.87S
#WALLOWA SCHOOL N/A         51  43  74  CALM    29.82S



$$



USA.gov is the U.S. government's official web portal to all federal, state and local government web resources and services.